FALCON 9 DEB (47920 NORAD) Tracking and Keplerian Element Data

This shows tracking and keplerian element data for the satellite.

Feedback or suggestion? Click here.




ElementValue
Catalog47920
NameFALCON 9 DEB
Epoch Orbit418
Epoch Day99.32868378
Epoch Year2021
RAAN83.4382
Inclination53.0361
Eccentricity0.0007178
Argument of Perigee292.4848
Mean Anonmoly67.544
Mean Motion16.43375611
Decay Rate0.0701696
L11 47920U 21021BN 21099.32868378 .07016960 12498-4 28211-3 0 9998
L22 47920 53.0361 83.4382 0007178 292.4848 67.5440 16.43375611 4186



Live tracking and technical data element details for FALCON 9 DEB (NORAD 47920). FALCON 9 DEB can be tracked NOW for your location showing map with azimuth and elevation plus other details from your city location.







IsCatalogInMostPopularTable: catalog: 47920, numindb: 101
Update: records affected: 1



GetName: 47920 FALCON 9 DEB

Hit Count: updated at: Sun, 11 Jun 2023 00:32:15 GMT